Phoenix Deer Valley, AZ

5:05 AM MST on September 26, 2017 (GMT -0700)
Phoenix-Deer Valley Municipal

Weather History for KDVT - September, 2013

Change the Weather History Date:

Tuesday, September 24, 2013

  Actual Average Record
Temperature  
Mean Temperature 80 °F -  
Max Temperature 93 °F 93 °F 102 °F (2002)
Min Temperature 66 °F 71 °F 57 °F (2017)
Cooling Degree Days 14    
Growing Degree Days 30 (Base 50)    
Moisture  
Dew Point 36 °F    
Average Humidity 22    
Maximum Humidity 33    
Minimum Humidity 12    
Precipitation  
Precipitation 0.00 in - - ()
Sea Level Pressure  
Sea Level Pressure 29.81 in    
Wind  
Wind Speed 4 mph (SW)    
Max Wind Speed 12 mph    
Max Gust Speed -    
Visibility 10 miles    
Events      
Averages and records for this station are not official NWS values.
T = Trace of Precipitation, MM = Missing Value Source: NWS Daily Summary

Daily Weather History Graph

Daily Weather History Graph

Search for Another Location

Airport or City:

Trip Planner

Search our weather history database for the weather conditions in past years. The results will help you decide how hot, cold, wet, or windy it might be!

Date:

Astronomy

Sep. 24, 2013 Rise Set
Actual Time 6:18 AM MST 6:21 PM MST
Civil Twilight 5:53 AM MST 6:46 PM MST
Nautical Twilight 5:24 AM MST 7:15 PM MST
Astronomical Twilight 4:54 AM MST 7:44 PM MST
Moon 9:57 PM MST (9/24) 11:21 AM MST (9/24)
Length of Visible Light 12h 53m
Length of Day
12h 03m
Waning Gibbous, 72% of the Moon is Illuminated
Sep 24
Waning Gibbous
Sep 26
Last Quarter
Oct 4
New
Oct 11
First Quarter
Oct 18
Full

Hourly Weather History & Observations

Time (MST) Temp. Dew Point Humidity Pressure Visibility Wind Dir Wind Speed Gust Speed Precip Events Conditions
12:53 AM 73.9 °F 33.1 °F 22% 29.83 in 10.0 mi NNE 11.5 mph - N/A   Clear
1:53 AM 72.0 °F 33.1 °F 24% 29.83 in 10.0 mi Calm Calm - N/A   Clear
2:53 AM 70.0 °F 33.1 °F 26% 29.83 in 10.0 mi North 3.5 mph - N/A   Clear
3:53 AM 71.1 °F 33.1 °F 25% 29.83 in 10.0 mi Calm Calm - N/A   Clear
4:53 AM 66.9 °F 36.0 °F 32% 29.84 in 10.0 mi Calm Calm - N/A   Clear
5:53 AM 66.9 °F 36.0 °F 32% 29.86 in 10.0 mi Calm Calm - N/A   Clear
6:53 AM 69.1 °F 36.0 °F 30% 29.87 in 10.0 mi Calm Calm - N/A   Clear
7:53 AM 72.0 °F 37.9 °F 29% 29.88 in 10.0 mi Calm Calm - N/A   Clear
8:53 AM 78.1 °F 36.0 °F 22% 29.90 in 10.0 mi Calm Calm - N/A   Clear
9:53 AM 82.0 °F 36.0 °F 19% 29.90 in 10.0 mi ESE 6.9 mph - N/A   Clear
10:53 AM 84.9 °F 34.0 °F 16% 29.89 in 10.0 mi Calm Calm - N/A   Clear
11:53 AM 89.1 °F 32.0 °F 13% 29.86 in 10.0 mi ESE 6.9 mph - N/A   Clear
12:53 PM 90.0 °F 32.0 °F 13% 29.83 in 10.0 mi Variable 5.8 mph - N/A   Clear
1:53 PM 91.9 °F 32.0 °F 12% 29.80 in 10.0 mi SSE 4.6 mph - N/A   Clear
2:53 PM 93.0 °F 36.0 °F 13% 29.77 in 10.0 mi WSW 8.1 mph - N/A   Clear
3:53 PM 93.0 °F 37.0 °F 14% 29.76 in 10.0 mi WSW 10.4 mph - N/A   Clear
4:53 PM 91.9 °F 35.1 °F 13% 29.74 in 10.0 mi WSW 9.2 mph - N/A   Clear
5:53 PM 91.0 °F 34.0 °F 13% 29.73 in 10.0 mi WSW 5.8 mph - N/A   Clear
6:53 PM 88.0 °F 35.1 °F 15% 29.73 in 10.0 mi WSW 4.6 mph - N/A   Clear
7:53 PM 84.0 °F 39.0 °F 20% 29.74 in 10.0 mi Calm Calm - N/A   Clear
8:53 PM 79.0 °F 39.9 °F 25% 29.74 in 10.0 mi Calm Calm - N/A   Clear
9:53 PM 75.0 °F 43.0 °F 32% 29.75 in 10.0 mi Calm Calm - N/A   Clear
10:53 PM 73.0 °F 42.1 °F 33% 29.74 in 10.0 mi Calm Calm - N/A   Clear
11:53 PM 72.0 °F 41.0 °F 33% 29.73 in 10.0 mi Calm Calm - N/A   Clear